Location: Sunny Point
(33.0946°N, 85.0574°W)
Time: 07:22:12
(UTC+00:00)

Envisat - Pass Details

Date: 25 May 2024
Orbit: 762 x 764 km, 98.3° (Epoch: 20 June)

Event Time Altitude Azimuth Distance (km) Brightness Sun altitude
Rises 08:40:24 0° 16° (NNE) 3,230 7.3 -20.4°
Reaches altitude 10° 08:42:44 10° 19° (NNE) 2,300 6.4 -20.1°
Maximum altitude 08:47:46 65° 101° (E) 834 3.3 -19.3°
Enters shadow 08:51:04 22° 179° (S) 1,636 4.3 -18.8°
